385  
ASUS46 KSEW 240120  
RWRWA  
 
WASHINGTON REGIONAL WEATHER ROUNDUP  
NATIONAL WEATHER SERVICE SEATTLE WA  
600 PM PDT WED SEP 23 2020  
 
NOTE:"FAIR" INDICATES FEW OR NO CLOUDS BELOW 12,000 FEET WITH NO  
SIGNIFICANT WEATHER AND/OR S TO VISIBILITY
.  
 
WAZ507-509-555>559-240200-  
SEATTLE, TACOMA, EVERETT, AND VICINITY  
 
CITY SKY/WX TMP DP RH WIND PRES REMARKS
 
EVERETT LGT RAIN 60 57 89 S26G37 29.68F  
BOEING FIELD LGT RAIN 62 32 32 SE17 29.71F  
RENTON LGT RAIN 62 58 86 SE8 29.71F FOG  
SEATAC AIRPORT LGT RAIN 61 59 93 SE15G26 29.72F FOG  
JBLM-MCCHORD LGT RAIN 59 57 94 S13 29.72F  
PUYALLUP DRIZZLE 59 59 100 S8 29.74F  
BREMERTON LGT RAIN 59 58 96 S12G23 29.68F  
JBLM-FT LEWIS LGT RAIN 60 60 100 SE9 29.71F  
TACOMA NARROWS LGT RAIN 58 56 93 S12 29.72F  

 
 
WAZ001-503-506-510-514-515-240200-  
NORTH INTERIOR  
 
CITY SKY/WX TMP DP RH WIND PRES REMARKS
 
BELLINGHAM CLOUDY 65 56 72 S18G33 29.58S  
FRIDAY HARBOR CLOUDY 58 55 90 S15 29.58S  
EASTSOUND CLOUDY 64 57 77 S16G24 29.57R  
PORT ANGELES LGT RAIN 58 57 97 W3 29.59S FOG  
EDIZ HOOK RAIN 56 56 99 W8 29.58S  
PORT TOWNSEND PTSUNNY 63 57 82 S16G26 29.58F  
NAS WHIDBEY MOCLDY 64 56 75 SE35G43 29.62S  
ARLINGTON LGT RAIN 61 58 90 S15G22 29.67F  
BURLINGTON CLOUDY 64 57 77 SE14G30 29.63F  

 
 
WAZ020-022-039-040-504-511-512-240200-  
SOUTHWEST INTERIOR  
 
CITY SKY/WX TMP DP RH WIND PRES REMARKS
 
SHELTON CLOUDY 61 58 90 SW13 29.67S  
OLYMPIA LGT RAIN 60 58 92 SW12 29.72F  
CHEHALIS LGT RAIN 61 61 100 SW6 29.74S  
KELSO LGT RAIN 62 61 96 S6 29.76F  
VANCOUVER LGT RAIN 64 60 87 CALM 29.80S  
SCAPPOOSE, OR LGT RAIN 63 62 97 S5 29.78F  
PORTLAND, OR RAIN 64 62 93 SW5 29.81S FOG  

 
 
WAZ021-516-517-240200-  
WASHINGTON COAST  
 
CITY SKY/WX TMP DP RH WIND PRES REMARKS
 
FORKS LGT RAIN 56 55 97 S7G16 29.63R FOG  
HOQUIAM CLOUDY 60 55 83 S25G31 29.70F  
ASTORIA, OR RAIN 59 57 93 S20G28 29.75S FOG  

 
 
WAZ019-023-024-040-567>569-240200-  
CASCADE MOUNTAINS AND COLUMBIA GORGE  
 
CITY SKY/WX TMP DP RH WIND PRES REMARKS
 
STAMPEDE PASS RAIN 50 47 89 VRB3 29.83F FOG  
TROUTDALE, OR HVY RAIN 63 59 87 MISG 29.82R FOG  
HOOD RIVER, OR MOCLDY 63 59 88 N3 29.79F  
THE DALLES, OR MOCLDY 69 57 65 NW12G28 29.73R  

 
 
WAZ026-027-041>044-520-521-240200-  
EAST SLOPES  
 
CITY SKY/WX TMP DP RH WIND PRES REMARKS
 
OMAK CLOUDY 61 55 81 S13 29.76F  
WENATCHEE LGT RAIN 58 56 93 NW9 29.76R  
ELLENSBURG LGT RAIN 60 55 83 NW13 29.78F  
YAKIMA LGT RAIN 64 58 80 W9 29.76R  
SUNNYSIDE ARPT LGT RAIN 68 56 64 W5 29.71R  
YAKIMA TC NOT AVBL  

 
 
WAZ028-034-035-240200-  
COLUMBIA BASIN  
 
CITY SKY/WX TMP DP RH WIND PRES REMARKS
 
EPHRATA LGT RAIN 66 52 60 NW7 29.75F  
MOSES LAKE LGT RAIN 70 50 49 NW6 29.75F  
PASCO MOCLDY 80 45 28 E9 29.69F  
RICHLAND ARPT MOCLDY 78 48 35 SE7 29.68F  
HERMISTON, OR MOCLDY 84 46 26 CALM 29.68F  

 
 
WAZ036>038-240200-  
NORTHEAST WASHINGTON  
 
CITY SKY/WX TMP DP RH WIND PRES REMARKS
 
SPOKANE GEIGER CLOUDY 71 38 29 S6 29.81F  
SPOKANE FELTS MOCLDY 75 37 25 S5 29.80F  
FAIRCHILD AFB MOCLDY 69 38 33 SE5 29.80F  
COEURDALENE,ID MOCLDY 71 41 33 S5 29.82F  
DEER PARK MOCLDY 65 46 50 NW5 29.82F  

 
 
WAZ029>033-240200-  
SOUTHEAST WASHINGTON  
 
CITY SKY/WX TMP DP RH WIND PRES REMARKS
 
PULLMAN MOCLDY 72 43 35 NE3 29.85F  
LEWISTON, ID MOCLDY 79 43 27 S3 29.77F  
WALLA WALLA CLOUDY 77 44 30 E6 29.73F  
PENDLETON, OR CLOUDY 84 34 16 SW16G24 29.74F  

 
 
 
CLICK HERE TO GO TO PREVIOUS BULLETINS.

The Nexlab WA Page Main Text Page